Pittsburgh, PA

9:26 AM EST on February 24, 2018 (GMT -0500)
Pittsburgh International

Weather History for KPIT - December, 2013

Change the Weather History Date:

Thursday, December 26, 2013

  Actual Average Record
Temperature  
Mean Temperature 31 °F 30 °F  
Max Temperature 36 °F 37 °F 68 °F (1875)
Min Temperature 25 °F 23 °F -6 °F (1983)
Degree Days  
Heating Degree Days 34 35  
Month to date heating degree days 798 834  
Since 1 July heating degree days 1966 1997  
Cooling Degree Days 0 0  
Month to date cooling degree days 0 0  
Year to date cooling degree days 831 736  
Moisture  
Dew Point 22 °F    
Average Humidity 70    
Maximum Humidity 92    
Minimum Humidity 47    
Precipitation  
Precipitation 0.05 in 0.09 in 1.13 in (1875)
Month to date precipitation 2.69 2.41  
Year to date precipitation 36.08 37.75  
Snow  
Snow 1.20 in 0.30 in 9.00 in (1913)
Month to date snowfall 12.3 6.7  
Since 1 July snowfall 21.7 9.1  
Snow Depth 1.00 in    
Sea Level Pressure  
Sea Level Pressure 30.24 in    
Wind  
Wind Speed 8 mph (SW)    
Max Wind Speed 20 mph    
Max Gust Speed 30 mph    
Visibility 7 miles    
Events Snow    
T = Trace of Precipitation, MM = Missing Value Source: NWS Daily Summary

Daily Weather History Graph

Daily Weather History Graph

Search for Another Location

Airport or City:

Trip Planner

Search our weather history database for the weather conditions in past years. The results will help you decide how hot, cold, wet, or windy it might be!

Date:

Astronomy

Dec. 26, 2013 Rise Set
Actual Time 7:42 AM EST 5:00 PM EST
Civil Twilight 7:12 AM EST 5:31 PM EST
Nautical Twilight 6:37 AM EST 6:05 PM EST
Astronomical Twilight 6:04 AM EST 6:38 PM EST
Moon 1:08 AM EST (12/26) 12:36 PM EST (12/26)
Length of Visible Light 10h 19m
Length of Day
9h 17m
Last Quarter, 38% of the Moon is Illuminated
Dec 26
Last Quarter
Jan 1
New
Jan 7
First Quarter
Jan 15
Full
Jan 24
Last Quarter

Hourly Weather History & Observations

Time (EST) Temp. Windchill Dew Point Humidity Pressure Visibility Wind Dir Wind Speed Gust Speed Precip Events Conditions
12:51 AM 27.0 °F 23.0 °F 25.0 °F 92% 30.24 in 1.0 mi South 3.5 mph - 0.03 in Snow Light Snow
1:51 AM 27.0 °F 23.0 °F 25.0 °F 92% 30.22 in 1.5 mi South 3.5 mph - 0.02 in Snow Light Snow
2:10 AM 26.6 °F 21.2 °F 24.8 °F 93% 30.14 in 2.5 mi South 4.6 mph - 0.01 in Snow Light Snow
2:32 AM 26.6 °F 20.0 °F 24.8 °F 93% 30.14 in 1.2 mi SSE 5.8 mph - 0.01 in Snow Light Snow
2:51 AM 27.0 °F 19.5 °F 25.0 °F 92% 30.20 in 1.5 mi SSE 6.9 mph - 0.02 in Snow Light Snow
3:06 AM 26.6 °F 18.2 °F 24.8 °F 93% 30.12 in 5.0 mi SSE 8.1 mph - 0.00 in Snow Light Snow
3:51 AM 28.0 °F 22.8 °F 26.1 °F 92% 30.18 in 10.0 mi South 4.6 mph - 0.00 in   Overcast
4:51 AM 28.0 °F 22.8 °F 26.1 °F 92% 30.17 in 10.0 mi South 4.6 mph - N/A   Overcast
5:51 AM 28.0 °F 19.3 °F 26.1 °F 92% 30.17 in 10.0 mi SSW 9.2 mph - N/A   Overcast
6:51 AM 28.9 °F 20.4 °F 27.0 °F 92% 30.17 in 9.0 mi SW 9.2 mph - 0.00 in Snow Light Snow
7:14 AM 28.4 °F 19.7 °F 26.6 °F 93% 30.11 in 9.0 mi SW 9.2 mph - 0.00 in Snow Light Snow
7:51 AM 28.9 °F 19.8 °F 26.1 °F 89% 30.19 in 9.0 mi WSW 10.4 mph - 0.00 in Snow Light Snow
8:51 AM 32.0 °F 24.2 °F 25.0 °F 75% 30.20 in 7.0 mi WSW 9.2 mph 23.0 mph 0.00 in Snow Light Snow
9:51 AM 30.9 °F 21.7 °F 26.1 °F 82% 30.23 in 1.5 mi WSW 11.5 mph 19.6 mph 0.00 in Snow Light Snow
10:39 AM 32.0 °F 20.8 °F 26.6 °F 80% 30.18 in 3.0 mi SW 17.3 mph 23.0 mph 0.00 in Snow Light Snow
10:51 AM 32.0 °F 23.0 °F 26.1 °F 79% 30.24 in 3.0 mi WSW 11.5 mph 21.9 mph 0.00 in Snow Light Snow
11:51 AM 34.0 °F 24.2 °F 24.1 °F 67% 30.25 in 10.0 mi WSW 15.0 mph 23.0 mph 0.00 in   Mostly Cloudy
12:51 PM 34.0 °F 25.0 °F 18.0 °F 52% 30.24 in 10.0 mi West 12.7 mph 26.5 mph N/A   Mostly Cloudy
1:51 PM 35.1 °F 25.9 °F 18.0 °F 50% 30.25 in 10.0 mi West 13.8 mph 20.7 mph N/A   Scattered Clouds
2:51 PM 36.0 °F 27.5 °F 18.0 °F 48% 30.25 in 10.0 mi WSW 12.7 mph 21.9 mph N/A   Scattered Clouds
3:51 PM 36.0 °F 27.5 °F 18.0 °F 48% 30.26 in 10.0 mi WSW 12.7 mph 19.6 mph N/A   Scattered Clouds
4:51 PM 35.1 °F 28.6 °F 17.1 °F 48% 30.28 in 10.0 mi WSW 8.1 mph - N/A   Mostly Cloudy
5:51 PM 34.0 °F 27.2 °F 17.1 °F 50% 30.30 in 10.0 mi WSW 8.1 mph - N/A   Mostly Cloudy
6:51 PM 32.0 °F 27.5 °F 17.1 °F 54% 30.32 in 10.0 mi West 4.6 mph - N/A   Scattered Clouds
7:51 PM 30.0 °F 20.5 °F 15.1 °F 54% 30.35 in 10.0 mi West 11.5 mph - N/A   Partly Cloudy
8:51 PM 27.0 °F 18.7 °F 14.0 °F 58% 30.36 in 10.0 mi WNW 8.1 mph - N/A   Partly Cloudy
9:51 PM 27.0 °F - 14.0 °F 58% 30.38 in 10.0 mi Calm Calm - N/A   Partly Cloudy
10:51 PM 26.1 °F - 14.0 °F 60% 30.38 in 10.0 mi Calm Calm - N/A   Mostly Cloudy
11:51 PM 25.0 °F 20.7 °F 15.1 °F 66% 30.38 in 10.0 mi South 3.5 mph - N/A   Overcast